Regional Weather Roundup
Issued by NWS

Home | Current Version | Previous Version | Graphics & Text | Print | Product List | Glossary On
Versions: 1 2 3 4 5 6 7 8 9 10 11 12 13 14 15 16 17 18 19 20 21 22 23 24 25 26 27 28 29 30 31 32 33 34 35 36 37 38 39 40 41 42 43 44 45 46 47 48 49 50
000
ASUS45 KCYS 010410
RWRWY

WYOMING REGIONAL WEATHER ROUNDUP
NATIONAL WEATHER SERVICE CHEYENNE WY
1000 PM MDT TUE MAR 31 2015

NOTE:  "FAIR" INDICATES FEW OR NO CLOUDS BELOW 12,000 FEET
WITH NO SIGNIFICANT WEATHER AND/OR OBSTRUCTIONS TO VISIBILITY.

WYZ001-010500-
YELLOWSTONE NATIONAL PARK

CITY           SKY/WX    TMP DP  RH WIND       PRES   REMARKS
LK YELLOWSTONE   N/A     42  21  43 W6        29.83S
W YELLOWSTONE  NOT AVBL

$$
WYZ002>013-054>058-071-098>099-010500-
NORTHERN WYOMING

CITY           SKY/WX    TMP DP  RH WIND       PRES   REMARKS
JACKSON        MOCLDY    52  23  32 SW14G22   29.81R
CODY           FAIR      59  21  23 SW15G21   29.66S
GREYBULL       FAIR      64  20  18 W13       29.62R
WORLAND        FAIR      59  25  27 S10       29.61S
SHERIDAN       FAIR      56  25  30 SW5       29.58S
BUFFALO        FAIR      63  19  18 SW8       29.64F
GILLETTE       FAIR      62  21  20 S17       29.62F
HULETT         FAIR      61  18  18 CALM      29.63F
NEWCASTLE      FAIR      63  12  14 E12       29.67F

$$
WYZ014>020-022>026-101>103-010500-
CENTRAL WYOMING

CITY           SKY/WX    TMP DP  RH WIND       PRES   REMARKS
BIG PINEY      FAIR      47  18  31 W14       29.85R
PINEDALE       MOCLDY    45  19  36 W8        29.85R
DUBOIS         MOCLDY    48  21  34 SW13G24   29.79F
LANDER         FAIR      58  17  20 S10       29.70F
RIVERTON       FAIR      57  18  21 W7        29.71F
CASPER         FAIR      54  20  26 SW8       29.73S
DOUGLAS        FAIR      57  20  23 S7        29.72F

$$
WYZ021-027>030-104>119-010500-
SOUTHERN WYOMING

CITY           SKY/WX    TMP DP  RH WIND       PRES   REMARKS
EVANSTON       FAIR      49  24  37 W10       29.89R
KEMMERER       FAIR      46  23  39 W13       29.87F
FORT BRIDGER   FAIR      50  25  37 W9        29.91R
ROCK SPRINGS   FAIR      53  15  22 SW10      29.83
DIXON          FAIR      58  19  22 S12       29.89S
RAWLINS        FAIR      53  14  21 W9        29.85S
SARATOGA       FAIR      46  19  34 S10       29.88F
LARAMIE        FAIR      46  19  34 S12       29.90F
CHEYENNE       FAIR      52  19  27 VRB6      29.85F
TORRINGTON     FAIR      58  20  22 CALM      29.70F
PINE BLUFFS    FAIR      50  21  32 W3        29.82S

$$


USA.gov is the U.S. government's official web portal to all federal, state and local government web resources and services.